{"data":{"norad_id":66301,"epoch":"2026-05-24T23:56:12.801696Z","epoch_age_seconds":71360,"freshness":"FRESH","line1":"1 66301U 25248J   26144.99737039  .00003615  00000+0  24150-3 0  9990","line2":"2 66301  45.4015 255.6933 0006149 259.6791 100.3397 15.08857732 32003","mean_motion":15.08857732,"eccentricity":0.0006149,"inclination_deg":45.4015,"raan_deg":255.6933,"arg_perigee_deg":259.6791,"mean_anomaly_deg":100.3397,"bstar":0.0002415,"rev_number":3200,"period_min":95.436433101699,"perigee_km":535.43541854054,"apogee_km":543.94296118884,"semimajor_km":6917.8261898647,"source":"CELESTRAK","updated_at":"2026-05-25T13:38:06.129475Z"}}